sat.trackr.live / text

‹ back to catalog

STARLINK-31465

NORAD 59012 · 2024-036Q

PAYLOAD ACTIVE UNKNOWN

§ Identity

Operator
Country
US
Launch date
2024-02-23
Launch site
AFWTR
Launch vehicle
Mass (kg)
RCS (m²)

Purposes: comms

External: N2YO · Heavens-Above · Gunter

§ Orbital elements

Epoch: 2026-09-20T16:41:39.427872Z

Period
94.01 min
Inclination
53.1587°
Eccentricity
0.0001367
Mean motion
15.31699564 rev/d
Perigee alt
469.8 km
Apogee alt
471.7 km
Semi-major
6,848.9 km
B*
2.8076e-5
RAAN
252.0517°
Arg perigee
85.9351°
Mean anomaly
274.1807°
Rev number
14,518

§ Raw data

STARLINK-314651 59012U 24036Q   26263.69559523  .00000506  00000+0  28076-4 0  99922 59012  53.1587 252.0517 0001367  85.9351 274.1807 15.31699564145185

JSON: /api/v1/satellites/59012 · /tle

For live sub-satellite position, see the globe view (requires WebGL).

§ Visibility from observer

Set your observer location to see the next 7 days of passes ≥ 10°. The values pass through the URL so the page stays shareable.

No JS? Fill the form by hand. The geolocation button needs JavaScript.